Year,Month,Day,Hour,Minute,Value (Times are PST for insolation in W/m^2)
2015,12,04,00,00,0.00
2015,12,04,00,01,0.00
2015,12,04,00,02,0.00
2015,12,04,00,03,0.00
2015,12,04,00,04,0.00
2015,12,04,00,05,0.00
2015,12,04,00,06,0.00
2015,12,04,00,07,0.00
2015,12,04,00,08,0.00
2015,12,04,00,09,0.00
2015,12,04,00,10,0.00
2015,12,04,00,11,0.00
2015,12,04,00,12,0.00
2015,12,04,00,13,0.00
2015,12,04,00,14,0.00
2015,12,04,00,15,0.00
2015,12,04,00,16,0.00
2015,12,04,00,17,0.00
2015,12,04,00,18,0.00
2015,12,04,00,19,0.00
2015,12,04,00,20,0.00
2015,12,04,00,21,0.00
2015,12,04,00,22,0.00
2015,12,04,00,23,0.00
2015,12,04,00,24,0.00
2015,12,04,00,25,0.00
2015,12,04,00,26,0.00
2015,12,04,00,27,0.00
2015,12,04,00,28,0.00
2015,12,04,00,29,0.00
2015,12,04,00,30,0.00
2015,12,04,00,31,0.00
2015,12,04,00,32,0.00
2015,12,04,00,33,0.00
2015,12,04,00,34,0.00
2015,12,04,00,35,0.00
2015,12,04,00,36,0.00
2015,12,04,00,37,0.00
2015,12,04,00,38,0.00
2015,12,04,00,39,0.00
2015,12,04,00,40,0.00
2015,12,04,00,41,0.00
2015,12,04,00,42,0.00
2015,12,04,00,43,0.00
2015,12,04,00,44,0.00
2015,12,04,00,45,0.00
2015,12,04,00,46,0.00
2015,12,04,00,47,0.00
2015,12,04,00,48,0.00
2015,12,04,00,49,0.00
2015,12,04,00,50,0.00
2015,12,04,00,51,0.00
2015,12,04,00,52,0.00
2015,12,04,00,53,0.00
2015,12,04,00,54,0.00
2015,12,04,00,55,0.00
2015,12,04,00,56,0.00
2015,12,04,00,57,0.00
2015,12,04,00,58,0.00
2015,12,04,00,59,0.00
2015,12,04,01,00,0.00
2015,12,04,01,01,0.00
2015,12,04,01,02,0.00
2015,12,04,01,03,0.00
2015,12,04,01,04,0.00
2015,12,04,01,05,0.00
2015,12,04,01,06,0.00
2015,12,04,01,07,0.00
2015,12,04,01,08,0.00
2015,12,04,01,09,0.00
2015,12,04,01,10,0.00
2015,12,04,01,11,0.00
2015,12,04,01,12,0.00
2015,12,04,01,13,0.00
2015,12,04,01,14,0.00
2015,12,04,01,15,0.00
2015,12,04,01,16,0.00
2015,12,04,01,17,0.00
2015,12,04,01,18,0.00
2015,12,04,01,19,0.00
2015,12,04,01,20,0.00
2015,12,04,01,21,0.00
2015,12,04,01,22,0.00
2015,12,04,01,23,0.00
2015,12,04,01,24,0.00
2015,12,04,01,25,0.00
2015,12,04,01,26,0.00
2015,12,04,01,27,0.00
2015,12,04,01,28,0.00
2015,12,04,01,29,0.00
2015,12,04,01,30,0.00
2015,12,04,01,31,0.00
2015,12,04,01,32,0.00
2015,12,04,01,33,0.00
2015,12,04,01,34,0.00
2015,12,04,01,35,0.00
2015,12,04,01,36,0.00
2015,12,04,01,37,0.00
2015,12,04,01,38,0.00
2015,12,04,01,39,0.00
2015,12,04,01,40,0.00
2015,12,04,01,41,0.00
2015,12,04,01,42,0.00
2015,12,04,01,43,0.00
2015,12,04,01,44,0.00
2015,12,04,01,45,0.00
2015,12,04,01,46,0.00
2015,12,04,01,47,0.00
2015,12,04,01,48,0.00
2015,12,04,01,49,0.00
2015,12,04,01,50,0.00
2015,12,04,01,51,0.00
2015,12,04,01,52,0.00
2015,12,04,01,53,0.00
2015,12,04,01,54,0.00
2015,12,04,01,55,0.00
2015,12,04,01,56,0.00
2015,12,04,01,57,0.00
2015,12,04,01,58,0.00
2015,12,04,01,59,0.00
2015,12,04,02,00,0.00
2015,12,04,02,01,0.00
2015,12,04,02,02,0.00
2015,12,04,02,03,0.00
2015,12,04,02,04,0.00
2015,12,04,02,05,0.00
2015,12,04,02,06,0.00
2015,12,04,02,07,0.00
2015,12,04,02,08,0.00
2015,12,04,02,09,0.00
2015,12,04,02,10,0.00
2015,12,04,02,11,0.00
2015,12,04,02,12,0.00
2015,12,04,02,13,0.00
2015,12,04,02,14,0.00
2015,12,04,02,15,0.00
2015,12,04,02,16,0.00
2015,12,04,02,17,0.00
2015,12,04,02,18,0.00
2015,12,04,02,19,0.00
2015,12,04,02,20,0.00
2015,12,04,02,21,0.00
2015,12,04,02,22,0.00
2015,12,04,02,23,0.00
2015,12,04,02,24,0.00
2015,12,04,02,25,0.00
2015,12,04,02,26,0.00
2015,12,04,02,27,0.00
2015,12,04,02,28,0.00
2015,12,04,02,29,0.00
2015,12,04,02,30,0.00
2015,12,04,02,31,0.00
2015,12,04,02,32,0.00
2015,12,04,02,33,0.00
2015,12,04,02,34,0.00
2015,12,04,02,35,0.00
2015,12,04,02,36,0.00
2015,12,04,02,37,0.00
2015,12,04,02,38,0.00
2015,12,04,02,39,0.00
2015,12,04,02,40,0.00
2015,12,04,02,41,0.00
2015,12,04,02,42,0.00
2015,12,04,02,43,0.00
2015,12,04,02,44,0.00
2015,12,04,02,45,0.00
2015,12,04,02,46,0.00
2015,12,04,02,47,0.00
2015,12,04,02,48,0.00
2015,12,04,02,49,0.00
2015,12,04,02,50,0.00
2015,12,04,02,51,0.00
2015,12,04,02,52,0.00
2015,12,04,02,53,0.00
2015,12,04,02,54,0.00
2015,12,04,02,55,0.00
2015,12,04,02,56,0.00
2015,12,04,02,57,0.00
2015,12,04,02,58,0.00
2015,12,04,02,59,0.00
2015,12,04,03,00,0.00
2015,12,04,03,01,0.00
2015,12,04,03,02,0.00
2015,12,04,03,03,0.00
2015,12,04,03,04,0.00
2015,12,04,03,05,0.00
2015,12,04,03,06,0.00
2015,12,04,03,07,0.00
2015,12,04,03,08,0.00
2015,12,04,03,09,0.00
2015,12,04,03,10,0.00
2015,12,04,03,11,0.00
2015,12,04,03,12,0.00
2015,12,04,03,13,0.00
2015,12,04,03,14,0.00
2015,12,04,03,15,0.00
2015,12,04,03,16,0.00
2015,12,04,03,17,0.00
2015,12,04,03,18,0.00
2015,12,04,03,19,0.00
2015,12,04,03,20,0.00
2015,12,04,03,21,0.00
2015,12,04,03,22,0.00
2015,12,04,03,23,0.00
2015,12,04,03,24,0.00
2015,12,04,03,25,0.00
2015,12,04,03,26,0.00
2015,12,04,03,27,0.00
2015,12,04,03,28,0.00
2015,12,04,03,29,0.00
2015,12,04,03,30,0.00
2015,12,04,03,31,0.00
2015,12,04,03,32,0.00
2015,12,04,03,33,0.00
2015,12,04,03,34,0.00
2015,12,04,03,35,0.00
2015,12,04,03,36,0.00
2015,12,04,03,37,0.00
2015,12,04,03,38,0.00
2015,12,04,03,39,0.00
2015,12,04,03,40,0.00
2015,12,04,03,41,0.00
2015,12,04,03,42,0.00
2015,12,04,03,43,0.00
2015,12,04,03,44,0.00
2015,12,04,03,45,0.00
2015,12,04,03,46,0.00
2015,12,04,03,47,0.00
2015,12,04,03,48,0.00
2015,12,04,03,49,0.00
2015,12,04,03,50,0.00
2015,12,04,03,51,0.00
2015,12,04,03,52,0.00
2015,12,04,03,53,0.00
2015,12,04,03,54,0.00
2015,12,04,03,55,0.00
2015,12,04,03,56,0.00
2015,12,04,03,57,0.00
2015,12,04,03,58,0.00
2015,12,04,03,59,0.00
2015,12,04,04,00,0.00
2015,12,04,04,01,0.00
2015,12,04,04,02,0.00
2015,12,04,04,03,0.00
2015,12,04,04,04,0.00
2015,12,04,04,05,0.00
2015,12,04,04,06,0.00
2015,12,04,04,07,0.00
2015,12,04,04,08,0.00
2015,12,04,04,09,0.00
2015,12,04,04,10,0.00
2015,12,04,04,11,0.00
2015,12,04,04,12,0.00
2015,12,04,04,13,0.00
2015,12,04,04,14,0.00
2015,12,04,04,15,0.00
2015,12,04,04,16,0.00
2015,12,04,04,17,0.00
2015,12,04,04,18,0.00
2015,12,04,04,19,0.00
2015,12,04,04,20,0.00
2015,12,04,04,21,0.00
2015,12,04,04,22,0.00
2015,12,04,04,23,0.00
2015,12,04,04,24,0.00
2015,12,04,04,25,0.00
2015,12,04,04,26,0.00
2015,12,04,04,27,0.00
2015,12,04,04,28,0.00
2015,12,04,04,29,0.00
2015,12,04,04,30,0.00
2015,12,04,04,31,0.00
2015,12,04,04,32,0.00
2015,12,04,04,33,0.00
2015,12,04,04,34,0.00
2015,12,04,04,35,0.00
2015,12,04,04,36,0.00
2015,12,04,04,37,0.00
2015,12,04,04,38,0.00
2015,12,04,04,39,0.00
2015,12,04,04,40,0.00
2015,12,04,04,41,0.00
2015,12,04,04,42,0.00
2015,12,04,04,43,0.00
2015,12,04,04,44,0.00
2015,12,04,04,45,0.00
2015,12,04,04,46,0.00
2015,12,04,04,47,0.00
2015,12,04,04,48,0.00
2015,12,04,04,49,0.00
2015,12,04,04,50,0.00
2015,12,04,04,51,0.00
2015,12,04,04,52,0.00
2015,12,04,04,53,0.00
2015,12,04,04,54,0.00
2015,12,04,04,55,0.00
2015,12,04,04,56,0.00
2015,12,04,04,57,0.00
2015,12,04,04,58,0.00
2015,12,04,04,59,0.00
2015,12,04,05,00,0.00
2015,12,04,05,01,0.00
2015,12,04,05,02,0.00
2015,12,04,05,03,0.00
2015,12,04,05,04,0.00
2015,12,04,05,05,0.00
2015,12,04,05,06,0.00
2015,12,04,05,07,0.00
2015,12,04,05,08,0.00
2015,12,04,05,09,0.00
2015,12,04,05,10,0.00
2015,12,04,05,11,0.00
2015,12,04,05,12,0.00
2015,12,04,05,13,0.00
2015,12,04,05,14,0.00
2015,12,04,05,15,0.00
2015,12,04,05,16,0.00
2015,12,04,05,17,0.00
2015,12,04,05,18,0.00
2015,12,04,05,19,0.00
2015,12,04,05,20,0.00
2015,12,04,05,21,0.00
2015,12,04,05,22,0.00
2015,12,04,05,23,0.00
2015,12,04,05,24,0.00
2015,12,04,05,25,0.00
2015,12,04,05,26,0.00
2015,12,04,05,27,0.00
2015,12,04,05,28,0.00
2015,12,04,05,29,0.00
2015,12,04,05,30,0.00
2015,12,04,05,31,0.00
2015,12,04,05,32,0.00
2015,12,04,05,33,0.00
2015,12,04,05,34,0.00
2015,12,04,05,35,0.00
2015,12,04,05,36,0.00
2015,12,04,05,37,0.00
2015,12,04,05,38,0.00
2015,12,04,05,39,0.00
2015,12,04,05,40,0.00
2015,12,04,05,41,0.00
2015,12,04,05,42,0.00
2015,12,04,05,43,0.00
2015,12,04,05,44,0.00
2015,12,04,05,45,0.00
2015,12,04,05,46,0.00
2015,12,04,05,47,0.00
2015,12,04,05,48,0.00
2015,12,04,05,49,0.00
2015,12,04,05,50,0.00
2015,12,04,05,51,0.00
2015,12,04,05,52,0.00
2015,12,04,05,53,0.00
2015,12,04,05,54,0.00
2015,12,04,05,55,0.00
2015,12,04,05,56,0.00
2015,12,04,05,57,0.00
2015,12,04,05,58,0.00
2015,12,04,05,59,0.00
2015,12,04,06,00,0.00
2015,12,04,06,01,0.00
2015,12,04,06,02,0.00
2015,12,04,06,03,0.00
2015,12,04,06,04,0.00
2015,12,04,06,05,0.00
2015,12,04,06,06,0.00
2015,12,04,06,07,0.00
2015,12,04,06,08,0.00
2015,12,04,06,09,0.00
2015,12,04,06,10,0.00
2015,12,04,06,11,0.00
2015,12,04,06,12,0.00
2015,12,04,06,13,0.00
2015,12,04,06,14,0.00
2015,12,04,06,15,0.00
2015,12,04,06,16,0.00
2015,12,04,06,17,0.00
2015,12,04,06,18,0.00
2015,12,04,06,19,0.00
2015,12,04,06,20,0.00
2015,12,04,06,21,0.00
2015,12,04,06,22,0.00
2015,12,04,06,23,0.00
2015,12,04,06,24,0.00
2015,12,04,06,25,0.00
2015,12,04,06,26,0.00
2015,12,04,06,27,0.00
2015,12,04,06,28,0.00
2015,12,04,06,29,0.00
2015,12,04,06,30,0.00
2015,12,04,06,31,0.00
2015,12,04,06,32,0.00
2015,12,04,06,33,0.00
2015,12,04,06,34,0.00
2015,12,04,06,35,0.00
2015,12,04,06,36,0.00
2015,12,04,06,37,0.00
2015,12,04,06,38,0.00
2015,12,04,06,39,0.00
2015,12,04,06,40,0.00
2015,12,04,06,41,0.00
2015,12,04,06,42,0.00
2015,12,04,06,43,0.00
2015,12,04,06,44,0.00
2015,12,04,06,45,0.00
2015,12,04,06,46,0.00
2015,12,04,06,47,0.00
2015,12,04,06,48,0.00
2015,12,04,06,49,0.00
2015,12,04,06,50,0.00
2015,12,04,06,51,0.00
2015,12,04,06,52,0.00
2015,12,04,06,53,0.00
2015,12,04,06,54,0.00
2015,12,04,06,55,0.00
2015,12,04,06,56,0.00
2015,12,04,06,57,0.00
2015,12,04,06,58,0.00
2015,12,04,06,59,0.00
2015,12,04,07,00,0.00
2015,12,04,07,01,0.00
2015,12,04,07,02,0.00
2015,12,04,07,03,0.00
2015,12,04,07,04,0.00
2015,12,04,07,05,0.00
2015,12,04,07,06,0.00
2015,12,04,07,07,0.00
2015,12,04,07,08,0.00
2015,12,04,07,09,0.00
2015,12,04,07,10,0.00
2015,12,04,07,11,0.00
2015,12,04,07,12,0.00
2015,12,04,07,13,0.00
2015,12,04,07,14,0.00
2015,12,04,07,15,0.00
2015,12,04,07,16,0.00
2015,12,04,07,17,0.00
2015,12,04,07,18,0.00
2015,12,04,07,19,0.00
2015,12,04,07,20,0.00
2015,12,04,07,21,0.00
2015,12,04,07,22,0.00
2015,12,04,07,23,0.00
2015,12,04,07,24,0.00
2015,12,04,07,25,0.00
2015,12,04,07,26,0.00
2015,12,04,07,27,0.00
2015,12,04,07,28,0.00
2015,12,04,07,29,0.00
2015,12,04,07,30,0.00
2015,12,04,07,31,0.00
2015,12,04,07,32,0.00
2015,12,04,07,33,0.00
2015,12,04,07,34,0.00
2015,12,04,07,35,0.00
2015,12,04,07,36,0.00
2015,12,04,07,37,0.00
2015,12,04,07,38,0.00
2015,12,04,07,39,0.00
2015,12,04,07,40,0.00
2015,12,04,07,41,0.00
2015,12,04,07,42,0.00
2015,12,04,07,43,0.00
2015,12,04,07,44,0.00
2015,12,04,07,45,0.00
2015,12,04,07,46,0.00
2015,12,04,07,47,0.00
2015,12,04,07,48,0.00
2015,12,04,07,49,0.00
2015,12,04,07,50,0.00
2015,12,04,07,51,0.00
2015,12,04,07,52,0.00
2015,12,04,07,53,0.00
2015,12,04,07,54,0.00
2015,12,04,07,55,0.00
2015,12,04,07,56,0.00
2015,12,04,07,57,0.00
2015,12,04,07,58,0.00
2015,12,04,07,59,1.00
2015,12,04,08,00,5.00
2015,12,04,08,01,5.00
2015,12,04,08,02,5.00
2015,12,04,08,03,5.00
2015,12,04,08,04,5.00
2015,12,04,08,05,5.00
2015,12,04,08,06,5.70
2015,12,04,08,07,8.00
2015,12,04,08,08,10.30
2015,12,04,08,09,11.00
2015,12,04,08,10,11.10
2015,12,04,08,11,12.00
2015,12,04,08,12,12.00
2015,12,04,08,13,12.00
2015,12,04,08,14,13.40
2015,12,04,08,15,14.00
2015,12,04,08,16,15.90
2015,12,04,08,17,16.00
2015,12,04,08,18,16.00
2015,12,04,08,19,16.00
2015,12,04,08,20,17.40
2015,12,04,08,21,20.50
2015,12,04,08,22,23.80
2015,12,04,08,23,30.10
2015,12,04,08,24,35.90
2015,12,04,08,25,35.90
2015,12,04,08,26,33.60
2015,12,04,08,27,33.00
2015,12,04,08,28,35.00
2015,12,04,08,29,35.60
2015,12,04,08,30,37.00
2015,12,04,08,31,38.20
2015,12,04,08,32,39.00
2015,12,04,08,33,39.90
2015,12,04,08,34,45.00
2015,12,04,08,35,49.60
2015,12,04,08,36,51.90
2015,12,04,08,37,51.70
2015,12,04,08,38,49.50
2015,12,04,08,39,51.20
2015,12,04,08,40,59.40
2015,12,04,08,41,65.00
2015,12,04,08,42,63.50
2015,12,04,08,43,60.70
2015,12,04,08,44,60.00
2015,12,04,08,45,61.80
2015,12,04,08,46,63.40
2015,12,04,08,47,64.00
2015,12,04,08,48,61.00
2015,12,04,08,49,61.30
2015,12,04,08,50,62.80
2015,12,04,08,51,62.90
2015,12,04,08,52,60.50
2015,12,04,08,53,54.20
2015,12,04,08,54,51.00
2015,12,04,08,55,53.10
2015,12,04,08,56,59.10
2015,12,04,08,57,67.30
2015,12,04,08,58,74.80
2015,12,04,08,59,76.60
2015,12,04,09,00,72.70
2015,12,04,09,01,71.40
2015,12,04,09,02,73.70
2015,12,04,09,03,77.00
2015,12,04,09,04,78.10
2015,12,04,09,05,83.80
2015,12,04,09,06,89.70
2015,12,04,09,07,95.20
2015,12,04,09,08,97.00
2015,12,04,09,09,92.70
2015,12,04,09,10,91.60
2015,12,04,09,11,94.70
2015,12,04,09,12,101.80
2015,12,04,09,13,111.00
2015,12,04,09,14,113.10
2015,12,04,09,15,115.10
2015,12,04,09,16,124.30
2015,12,04,09,17,136.10
2015,12,04,09,18,145.20
2015,12,04,09,19,148.00
2015,12,04,09,20,141.40
2015,12,04,09,21,131.80
2015,12,04,09,22,121.20
2015,12,04,09,23,122.30
2015,12,04,09,24,131.20
2015,12,04,09,25,132.50
2015,12,04,09,26,120.70
2015,12,04,09,27,101.40
2015,12,04,09,28,87.80
2015,12,04,09,29,85.00
2015,12,04,09,30,84.10
2015,12,04,09,31,79.80
2015,12,04,09,32,80.90
2015,12,04,09,33,79.80
2015,12,04,09,34,76.40
2015,12,04,09,35,78.10
2015,12,04,09,36,81.70
2015,12,04,09,37,83.80
2015,12,04,09,38,85.40
2015,12,04,09,39,86.20
2015,12,04,09,40,92.20
2015,12,04,09,41,85.20
2015,12,04,09,42,73.20
2015,12,04,09,43,65.60
2015,12,04,09,44,60.80
2015,12,04,09,45,50.30
2015,12,04,09,46,42.30
2015,12,04,09,47,38.30
2015,12,04,09,48,37.00
2015,12,04,09,49,37.00
2015,12,04,09,50,38.40
2015,12,04,09,51,45.50
2015,12,04,09,52,52.20
2015,12,04,09,53,58.30
2015,12,04,09,54,55.50
2015,12,04,09,55,44.80
2015,12,04,09,56,40.30
2015,12,04,09,57,41.10
2015,12,04,09,58,38.10
2015,12,04,09,59,34.60
2015,12,04,10,00,41.10
2015,12,04,10,01,57.30
2015,12,04,10,02,74.40
2015,12,04,10,03,84.60
2015,12,04,10,04,81.50
2015,12,04,10,05,72.60
2015,12,04,10,06,67.80
2015,12,04,10,07,63.20
2015,12,04,10,08,64.20
2015,12,04,10,09,71.00
2015,12,04,10,10,75.10
2015,12,04,10,11,76.70
2015,12,04,10,12,76.20
2015,12,04,10,13,72.10
2015,12,04,10,14,71.40
2015,12,04,10,15,71.80
2015,12,04,10,16,56.00
2015,12,04,10,17,47.50
2015,12,04,10,18,44.30
2015,12,04,10,19,43.40
2015,12,04,10,20,54.50
2015,12,04,10,21,51.20
2015,12,04,10,22,42.90
2015,12,04,10,23,39.90
2015,12,04,10,24,35.60
2015,12,04,10,25,35.30
2015,12,04,10,26,37.90
2015,12,04,10,27,41.70
2015,12,04,10,28,45.70
2015,12,04,10,29,49.80
2015,12,04,10,30,52.70
2015,12,04,10,31,54.30
2015,12,04,10,32,55.40
2015,12,04,10,33,53.50
2015,12,04,10,34,51.80
2015,12,04,10,35,49.60
2015,12,04,10,36,49.00
2015,12,04,10,37,49.40
2015,12,04,10,38,51.70
2015,12,04,10,39,53.50
2015,12,04,10,40,56.40
2015,12,04,10,41,61.00
2015,12,04,10,42,63.00
2015,12,04,10,43,65.40
2015,12,04,10,44,67.00
2015,12,04,10,45,66.10
2015,12,04,10,46,65.00
2015,12,04,10,47,65.00
2015,12,04,10,48,68.80
2015,12,04,10,49,69.20
2015,12,04,10,50,72.10
2015,12,04,10,51,81.00
2015,12,04,10,52,100.50
2015,12,04,10,53,133.00
2015,12,04,10,54,111.90
2015,12,04,10,55,104.60
2015,12,04,10,56,123.00
2015,12,04,10,57,214.90
2015,12,04,10,58,269.00
2015,12,04,10,59,208.00
2015,12,04,11,00,212.80
2015,12,04,11,01,362.20
2015,12,04,11,02,328.40
2015,12,04,11,03,271.30
2015,12,04,11,04,219.90
2015,12,04,11,05,164.60
2015,12,04,11,06,135.00
2015,12,04,11,07,123.50
2015,12,04,11,08,120.40
2015,12,04,11,09,123.30
2015,12,04,11,10,126.40
2015,12,04,11,11,118.90
2015,12,04,11,12,102.40
2015,12,04,11,13,82.30
2015,12,04,11,14,65.50
2015,12,04,11,15,57.60
2015,12,04,11,16,58.80
2015,12,04,11,17,64.50
2015,12,04,11,18,71.30
2015,12,04,11,19,76.10
2015,12,04,11,20,74.90
2015,12,04,11,21,76.00
2015,12,04,11,22,74.50
2015,12,04,11,23,77.10
2015,12,04,11,24,87.40
2015,12,04,11,25,104.60
2015,12,04,11,26,123.50
2015,12,04,11,27,147.30
2015,12,04,11,28,169.20
2015,12,04,11,29,210.00
2015,12,04,11,30,244.00
2015,12,04,11,31,342.50
2015,12,04,11,32,367.50
2015,12,04,11,33,379.90
2015,12,04,11,34,381.00
2015,12,04,11,35,288.40
2015,12,04,11,36,214.80
2015,12,04,11,37,182.30
2015,12,04,11,38,162.90
2015,12,04,11,39,159.40
2015,12,04,11,40,195.20
2015,12,04,11,41,289.00
2015,12,04,11,42,247.80
2015,12,04,11,43,249.00
2015,12,04,11,44,238.10
2015,12,04,11,45,253.60
2015,12,04,11,46,262.00
2015,12,04,11,47,493.80
2015,12,04,11,48,432.90
2015,12,04,11,49,285.20
2015,12,04,11,50,393.80
2015,12,04,11,51,450.20
2015,12,04,11,52,457.00
2015,12,04,11,53,231.20
2015,12,04,11,54,220.60
2015,12,04,11,55,236.00
2015,12,04,11,56,379.00
2015,12,04,11,57,490.70
2015,12,04,11,58,447.30
2015,12,04,11,59,511.10
2015,12,04,12,00,498.20
2015,12,04,12,01,442.60
2015,12,04,12,02,419.20
2015,12,04,12,03,434.00
2015,12,04,12,04,208.80
2015,12,04,12,05,156.40
2015,12,04,12,06,134.00
2015,12,04,12,07,134.00
2015,12,04,12,08,131.50
2015,12,04,12,09,133.00
2015,12,04,12,10,141.80
2015,12,04,12,11,167.60
2015,12,04,12,12,195.40
2015,12,04,12,13,213.00
2015,12,04,12,14,201.30
2015,12,04,12,15,195.00
2015,12,04,12,16,358.80
2015,12,04,12,17,329.10
2015,12,04,12,18,394.30
2015,12,04,12,19,385.30
2015,12,04,12,20,410.90
2015,12,04,12,21,427.00
2015,12,04,12,22,407.00
2015,12,04,12,23,306.50
2015,12,04,12,24,289.60
2015,12,04,12,25,335.10
2015,12,04,12,26,336.00
2015,12,04,12,27,134.70
2015,12,04,12,28,86.10
2015,12,04,12,29,81.60
2015,12,04,12,30,84.30
2015,12,04,12,31,82.20
2015,12,04,12,32,80.40
2015,12,04,12,33,88.70
2015,12,04,12,34,103.60
2015,12,04,12,35,123.00
2015,12,04,12,36,167.40
2015,12,04,12,37,217.80
2015,12,04,12,38,203.30
2015,12,04,12,39,224.90
2015,12,04,12,40,223.00
2015,12,04,12,41,183.30
2015,12,04,12,42,149.90
2015,12,04,12,43,183.90
2015,12,04,12,44,272.80
2015,12,04,12,45,355.50
2015,12,04,12,46,333.20
2015,12,04,12,47,236.90
2015,12,04,12,48,272.00
2015,12,04,12,49,186.70
2015,12,04,12,50,134.70
2015,12,04,12,51,122.40
2015,12,04,12,52,100.50
2015,12,04,12,53,112.50
2015,12,04,12,54,112.50
2015,12,04,12,55,93.00
2015,12,04,12,56,93.00
2015,12,04,12,57,90.40
2015,12,04,12,58,93.00
2015,12,04,12,59,103.00
2015,12,04,13,00,115.40
2015,12,04,13,01,119.50
2015,12,04,13,02,135.80
2015,12,04,13,03,146.00
2015,12,04,13,04,148.20
2015,12,04,13,05,155.00
2015,12,04,13,06,193.50
2015,12,04,13,07,169.70
2015,12,04,13,08,134.00
2015,12,04,13,09,138.10
2015,12,04,13,10,158.50
2015,12,04,13,11,181.00
2015,12,04,13,12,293.20
2015,12,04,13,13,382.20
2015,12,04,13,14,365.80
2015,12,04,13,15,338.90
2015,12,04,13,16,327.00
2015,12,04,13,17,325.20
2015,12,04,13,18,323.00
2015,12,04,13,19,307.30
2015,12,04,13,20,265.90
2015,12,04,13,21,240.80
2015,12,04,13,22,156.00
2015,12,04,13,23,229.40
2015,12,04,13,24,296.60
2015,12,04,13,25,254.00
2015,12,04,13,26,195.00
2015,12,04,13,27,177.40
2015,12,04,13,28,168.90
2015,12,04,13,29,163.60
2015,12,04,13,30,156.30
2015,12,04,13,31,153.00
2015,12,04,13,32,145.90
2015,12,04,13,33,135.20
2015,12,04,13,34,126.90
2015,12,04,13,35,130.00
2015,12,04,13,36,134.40
2015,12,04,13,37,121.20
2015,12,04,13,38,91.50
2015,12,04,13,39,93.80
2015,12,04,13,40,102.70
2015,12,04,13,41,106.50
2015,12,04,13,42,114.80
2015,12,04,13,43,125.20
2015,12,04,13,44,121.20
2015,12,04,13,45,123.50
2015,12,04,13,46,116.60
2015,12,04,13,47,100.20
2015,12,04,13,48,97.00
2015,12,04,13,49,102.60
2015,12,04,13,50,102.40
2015,12,04,13,51,110.90
2015,12,04,13,52,136.30
2015,12,04,13,53,148.40
2015,12,04,13,54,134.00
2015,12,04,13,55,119.50
2015,12,04,13,56,103.90
2015,12,04,13,57,92.00
2015,12,04,13,58,78.10
2015,12,04,13,59,72.80
2015,12,04,14,00,72.90
2015,12,04,14,01,74.00
2015,12,04,14,02,74.80
2015,12,04,14,03,79.60
2015,12,04,14,04,82.30
2015,12,04,14,05,85.20
2015,12,04,14,06,76.50
2015,12,04,14,07,53.20
2015,12,04,14,08,50.40
2015,12,04,14,09,56.70
2015,12,04,14,10,56.10
2015,12,04,14,11,59.80
2015,12,04,14,12,78.80
2015,12,04,14,13,87.80
2015,12,04,14,14,113.70
2015,12,04,14,15,149.50
2015,12,04,14,16,164.50
2015,12,04,14,17,146.40
2015,12,04,14,18,99.80
2015,12,04,14,19,59.90
2015,12,04,14,20,42.20
2015,12,04,14,21,37.80
2015,12,04,14,22,46.40
2015,12,04,14,23,60.80
2015,12,04,14,24,57.80
2015,12,04,14,25,54.80
2015,12,04,14,26,74.20
2015,12,04,14,27,93.40
2015,12,04,14,28,95.50
2015,12,04,14,29,80.70
2015,12,04,14,30,69.80
2015,12,04,14,31,53.90
2015,12,04,14,32,55.20
2015,12,04,14,33,61.10
2015,12,04,14,34,60.00
2015,12,04,14,35,58.60
2015,12,04,14,36,69.90
2015,12,04,14,37,95.30
2015,12,04,14,38,81.20
2015,12,04,14,39,70.00
2015,12,04,14,40,72.30
2015,12,04,14,41,68.80
2015,12,04,14,42,60.70
2015,12,04,14,43,56.90
2015,12,04,14,44,64.30
2015,12,04,14,45,69.50
2015,12,04,14,46,77.80
2015,12,04,14,47,83.00
2015,12,04,14,48,86.40
2015,12,04,14,49,95.90
2015,12,04,14,50,92.90
2015,12,04,14,51,95.10
2015,12,04,14,52,91.70
2015,12,04,14,53,87.20
2015,12,04,14,54,79.20
2015,12,04,14,55,72.50
2015,12,04,14,56,65.60
2015,12,04,14,57,59.50
2015,12,04,14,58,42.30
2015,12,04,14,59,27.00
2015,12,04,15,00,26.20
2015,12,04,15,01,32.80
2015,12,04,15,02,30.50
2015,12,04,15,03,27.00
2015,12,04,15,04,32.00
2015,12,04,15,05,51.00
2015,12,04,15,06,60.30
2015,12,04,15,07,49.60
2015,12,04,15,08,55.40
2015,12,04,15,09,53.30
2015,12,04,15,10,43.50
2015,12,04,15,11,47.90
2015,12,04,15,12,44.80
2015,12,04,15,13,31.20
2015,12,04,15,14,25.60
2015,12,04,15,15,25.00
2015,12,04,15,16,25.70
2015,12,04,15,17,35.30
2015,12,04,15,18,34.70
2015,12,04,15,19,33.00
2015,12,04,15,20,31.60
2015,12,04,15,21,25.90
2015,12,04,15,22,21.60
2015,12,04,15,23,18.50
2015,12,04,15,24,18.20
2015,12,04,15,25,19.00
2015,12,04,15,26,19.00
2015,12,04,15,27,20.30
2015,12,04,15,28,19.50
2015,12,04,15,29,16.20
2015,12,04,15,30,12.00
2015,12,04,15,31,11.60
2015,12,04,15,32,11.00
2015,12,04,15,33,11.00
2015,12,04,15,34,11.00
2015,12,04,15,35,10.90
2015,12,04,15,36,9.00
2015,12,04,15,37,9.00
2015,12,04,15,38,9.00
2015,12,04,15,39,9.00
2015,12,04,15,40,7.40
2015,12,04,15,41,7.00
2015,12,04,15,42,7.00
2015,12,04,15,43,7.00
2015,12,04,15,44,7.00
2015,12,04,15,45,7.00
2015,12,04,15,46,7.00
2015,12,04,15,47,7.00
2015,12,04,15,48,7.00
2015,12,04,15,49,7.00
2015,12,04,15,50,7.00
2015,12,04,15,51,7.00
2015,12,04,15,52,7.00
2015,12,04,15,53,7.00
2015,12,04,15,54,7.00
2015,12,04,15,55,6.10
2015,12,04,15,56,5.00
2015,12,04,15,57,5.00
2015,12,04,15,58,5.00
2015,12,04,15,59,5.00
2015,12,04,16,00,5.00
2015,12,04,16,01,5.00
2015,12,04,16,02,5.00
2015,12,04,16,03,5.00
2015,12,04,16,04,5.00
2015,12,04,16,05,5.00
2015,12,04,16,06,5.00
2015,12,04,16,07,2.80
2015,12,04,16,08,2.90
2015,12,04,16,09,5.00
2015,12,04,16,10,0.30
2015,12,04,16,11,0.00
2015,12,04,16,12,0.00
2015,12,04,16,13,0.00
2015,12,04,16,14,0.00
2015,12,04,16,15,0.00
2015,12,04,16,16,0.00
2015,12,04,16,17,0.00
2015,12,04,16,18,0.00
2015,12,04,16,19,0.00
2015,12,04,16,20,0.00
2015,12,04,16,21,0.00
2015,12,04,16,22,0.00
2015,12,04,16,23,0.00
2015,12,04,16,24,0.00
2015,12,04,16,25,0.00
2015,12,04,16,26,0.00
2015,12,04,16,27,0.00
2015,12,04,16,28,0.00
2015,12,04,16,29,0.00
2015,12,04,16,30,0.00
2015,12,04,16,31,0.00
2015,12,04,16,32,0.00
2015,12,04,16,33,0.00
2015,12,04,16,34,0.00
2015,12,04,16,35,0.00
2015,12,04,16,36,0.00
2015,12,04,16,37,0.00
2015,12,04,16,38,0.00
2015,12,04,16,39,0.00
2015,12,04,16,40,0.00
2015,12,04,16,41,0.00
2015,12,04,16,42,0.00
2015,12,04,16,43,0.00
2015,12,04,16,44,0.00
2015,12,04,16,45,0.00
2015,12,04,16,46,0.00
2015,12,04,16,47,0.00
2015,12,04,16,48,0.00
2015,12,04,16,49,0.00
2015,12,04,16,50,0.00
2015,12,04,16,51,0.00
2015,12,04,16,52,0.00
2015,12,04,16,53,0.00
2015,12,04,16,54,0.00
2015,12,04,16,55,0.00
2015,12,04,16,56,0.00
2015,12,04,16,57,0.00
2015,12,04,16,58,0.00
2015,12,04,16,59,0.00
2015,12,04,17,00,0.00
2015,12,04,17,01,0.00
2015,12,04,17,02,0.00
2015,12,04,17,03,0.00
2015,12,04,17,04,0.00
2015,12,04,17,05,0.00
2015,12,04,17,06,0.00
2015,12,04,17,07,0.00
2015,12,04,17,08,0.00
2015,12,04,17,09,0.00
2015,12,04,17,10,0.00
2015,12,04,17,11,0.00
2015,12,04,17,12,0.00
2015,12,04,17,13,0.00
2015,12,04,17,14,0.00
2015,12,04,17,15,0.00
2015,12,04,17,16,0.00
2015,12,04,17,17,0.00
2015,12,04,17,18,0.00
2015,12,04,17,19,0.00
2015,12,04,17,20,0.00
2015,12,04,17,21,0.00
2015,12,04,17,22,0.00
2015,12,04,17,23,0.00
2015,12,04,17,24,0.00
2015,12,04,17,25,0.00
2015,12,04,17,26,0.00
2015,12,04,17,27,0.00
2015,12,04,17,28,0.00
2015,12,04,17,29,0.00
2015,12,04,17,30,0.00
2015,12,04,17,31,0.00
2015,12,04,17,32,0.00
2015,12,04,17,33,0.00
2015,12,04,17,34,0.00
2015,12,04,17,35,0.00
2015,12,04,17,36,0.00
2015,12,04,17,37,0.00
2015,12,04,17,38,0.00